Location: Gad�tanya
(48.0500°N, 20.8500°E)
Time: 11:37:51
(UTC+00:00)

Cosmos 2322 - Pass Details

Date: 05 July 2020
Orbit: 841 x 854 km, 71.0° (Epoch: 14 August)

Event Time Altitude Azimuth Distance (km) Brightness Sun altitude
Rises 20:18:12 0° 209° (SSW) 3,410 6.6 -12.3°
Reaches altitude 10° 20:20:39 10° 210° (SSW) 2,479 5.9 -12.6°
Maximum altitude 20:26:22 81° 298° (WNW) 871 3.8 -13.1°
Drops below altitude 10° 20:32:07 10° 26° (NNE) 2,493 6.6 -13.6°
Sets 20:34:35 0° 28° (NNE) 3,432 7.3 -13.8°
